GW5874 Weather Reports


Display with metric or nautical units.
time (UTC)temp
F
wind
direction
speed
MPH
gust
MPH
rain 1hr
in
rain 24hr
in
rain mn
in
humidity
%
barometer
mb
20260831230058 99 232 2.0 3.0 0.00 0.00 0.00 31 1014.5
20260831225553 99 212 3.0 4.0 0.00 0.00 0.00 29 1014.7
20260831225053 99 146 4.0 5.0 0.00 0.00 0.00 31 1014.6
20260831224548 100 126 4.0 4.0 0.00 0.00 0.00 30 1014.5
20260831224043 100 196 5.0 7.0 0.00 0.00 0.00 30 1014.3
20260831223538 102 260 4.0 5.0 0.00 0.00 0.00 28 1014.5
20260831223035 102 239 2.0 3.0 0.00 0.00 0.00 28 1014.5
20260831222531 100 259 0.0 0.0 0.00 0.00 0.00 30 1014.7
20260831222030 100 222 3.0 3.0 0.00 0.00 0.00 30 1014.7
20260831221526 102 247 0.0 1.0 0.00 0.00 0.00 29 1014.6
20260831221021 103 268 1.0 1.0 0.00 0.00 0.00 28 1014.7
20260831220516 102 265 2.0 3.0 0.00 0.00 0.00 27 1014.9
20260831220012 101 219 3.0 4.0 0.00 0.00 0.00 29 1014.7
20260831215507 100 204 4.0 5.0 0.00 0.00 0.00 30 1014.7
20260831215003 100 216 2.0 3.0 0.00 0.00 0.00 29 1014.8
20260831214500 101 202 3.0 4.0 0.00 0.00 0.00 30 1014.8
20260831213956 99 178 1.0 1.0 0.00 0.00 0.00 30 1014.9
20260831213452 99 355 2.0 3.0 0.00 0.00 0.00 30 1014.9
20260831212952 100 191 9.0 10.0 0.00 0.00 0.00 29 1014.9
20260831212449 102 164 7.0 10.0 0.00 0.00 0.00 28 1014.9
20260831211948 100 266 1.0 1.0 0.00 0.00 0.00 29 1014.8
20260831211444 100 184 8.0 11.0 0.00 0.00 0.00 29 1014.7
20260831210942 99 210 6.0 7.0 0.00 0.00 0.00 31 1015.1
20260831210438 101 198 4.0 4.0 0.00 0.00 0.00 31 1015.1
20260831205934 101 127 3.0 4.0 0.00 0.00 0.00 29 1015.2
20260831205429 102 223 4.0 5.0 0.00 0.00 0.00 29 1015.3
20260831204925 100 250 2.0 3.0 0.00 0.00 0.00 29 1015.1
20260831204424 103 301 3.0 4.0 0.00 0.00 0.00 28 1015.4
20260831203923 103 269 0.0 1.0 0.00 0.00 0.00 28 1015.3
20260831203418 102 260 1.0 1.0 0.00 0.00 0.00 29 1015.4
20260831202916 101 155 4.0 4.0 0.00 0.00 0.00 30 1015.4
20260831202412 100 273 2.0 3.0 0.00 0.00 0.00 29 1015.4
20260831201911 101 237 0.0 1.0 0.00 0.00 0.00 29 1015.4
20260831201410 100 210 2.0 4.0 0.00 0.00 0.00 31 1015.5
20260831200906 101 186 6.0 8.0 0.00 0.00 0.00 30 1015.7
20260831200401 100 107 6.0 7.0 0.00 0.00 0.00 30 1016.1
20260831195856 101 250 2.0 3.0 0.00 0.00 0.00 31 1015.6
20260831195352 101 257 1.0 1.0 0.00 0.00 0.00 30 1015.8
20260831194847 101 291 3.0 4.0 0.00 0.00 0.00 30 1015.9
20260831194342 100 212 3.0 3.0 0.00 0.00 0.00 31 1015.9
20260831193841 100 255 4.0 5.0 0.00 0.00 0.00 31 1015.9
20260831193337 100 235 3.0 4.0 0.00 0.00 0.00 31 1015.9
20260831192832 100 190 6.0 7.0 0.00 0.00 0.00 31 1016.2
20260831192331 100 197 6.0 8.0 0.00 0.00 0.00 31 1016.1
20260831191827 99 205 5.0 8.0 0.00 0.00 0.00 31 1016.2
20260831191323 99 213 3.0 4.0 0.00 0.00 0.00 31 1016.4
20260831190819 100 286 3.0 4.0 0.00 0.00 0.00 30 1016.4
20260831190319 101 159 1.0 3.0 0.00 0.00 0.00 30 1016.5
20260831185819 103 148 4.0 5.0 0.00 0.00 0.00 29 1016.5
20260831185314 102 315 4.0 5.0 0.00 0.00 0.00 30 1016.5
20260831184813 99 268 1.0 1.0 0.00 0.00 0.00 32 1016.7
20260831184309 98 204 4.0 10.0 0.00 0.00 0.00 33 1016.6
20260831183804 99 196 4.0 4.0 0.00 0.00 0.00 33 1016.8
20260831183303 102 202 8.0 12.0 0.00 0.00 0.00 30 1016.8
20260831182803 102 261 4.0 5.0 0.00 0.00 0.00 30 1016.7
20260831182258 101 266 3.0 3.0 0.00 0.00 0.00 31 1016.9
20260831181753 101 304 3.0 4.0 0.00 0.00 0.00 32 1016.9
20260831181249 98 211 4.0 5.0 0.00 0.00 0.00 33 1017.0
20260831180748 96 299 2.0 3.0 0.00 0.00 0.00 36 1017.1
20260831180243 100 121 4.0 4.0 0.00 0.00 0.00 35 1017.2
20260831175743 99 19 1.0 1.0 0.00 0.00 0.00 34 1017.2
20260831175239 97 172 2.0 3.0 0.00 0.00 0.00 35 1017.4
20260831174734 99 234 5.0 7.0 0.00 0.00 0.00 33 1017.4
20260831174230 98 244 2.0 3.0 0.00 0.00 0.00 35 1017.6
20260831173729 98 236 2.0 3.0 0.00 0.00 0.00 36 1017.4
20260831173229 97 291 3.0 4.0 0.00 0.00 0.00 36 1017.6
20260831172724 97 277 4.0 5.0 0.00 0.00 0.00 36 1017.6
20260831172220 98 196 1.0 1.0 0.00 0.00 0.00 36 1017.6
20260831171714 98 302 2.0 3.0 0.00 0.00 0.00 36 1017.7
20260831171212 98 284 3.0 4.0 0.00 0.00 0.00 35 1017.8
20260831170708 98 286 2.0 3.0 0.00 0.00 0.00 37 1017.8
20260831170204 98 321 2.0 4.0 0.00 0.00 0.00 38 1017.9
20260831165700 97 232 2.0 3.0 0.00 0.00 0.00 38 1018.2
20260831165156 98 259 1.0 3.0 0.00 0.00 0.00 38 1018.2
20260831164652 96 245 2.0 3.0 0.00 0.00 0.00 39 1018.0
20260831164148 96 285 2.0 3.0 0.00 0.00 0.00 40 1018.1
20260831163643 96 273 2.0 4.0 0.00 0.00 0.00 40 1018.3
20260831163138 95 256 2.0 3.0 0.00 0.00 0.00 40 1018.2
20260831162637 96 312 3.0 4.0 0.00 0.00 0.00 40 1018.2
20260831162135 96 277 2.0 4.0 0.00 0.00 0.00 40 1018.3
20260831161631 95 233 3.0 4.0 0.00 0.00 0.00 40 1018.2
20260831161128 94 344 3.0 4.0 0.00 0.00 0.00 42 1018.3
20260831160627 93 261 4.0 5.0 0.00 0.00 0.00 43 1018.2
20260831160123 94 303 4.0 4.0 0.00 0.00 0.00 41 1018.2
20260831155622 95 272 3.0 4.0 0.00 0.00 0.00 42 1018.2
20260831155118 94 174 3.0 4.0 0.00 0.00 0.00 44 1018.1
20260831154614 95 291 4.0 5.0 0.00 0.00 0.00 42 1018.2
20260831154114 96 171 4.0 4.0 0.00 0.00 0.00 41 1017.9
20260831153613 94 257 3.0 4.0 0.00 0.00 0.00 43 1018.0
20260831153110 94 232 2.0 3.0 0.00 0.00 0.00 43 1018.1
20260831152605 93 356 1.0 1.0 0.00 0.00 0.00 45 1018.0
20260831152101 93 282 1.0 3.0 0.00 0.00 0.00 45 1017.8
20260831151600 91 192 2.0 3.0 0.00 0.00 0.00 48 1017.9
20260831151054 92 163 2.0 4.0 0.00 0.00 0.00 46 1018.2
20260831150549 91 201 2.0 3.0 0.00 0.00 0.00 48 1017.9
20260831150046 91 194 3.0 4.0 0.00 0.00 0.00 49 1018.2
20260831145540 90 206 3.0 4.0 0.00 0.00 0.00 51 1017.9
20260831145036 89 181 2.0 3.0 0.00 0.00 0.00 52 1017.9
20260831144531 88 245 3.0 4.0 0.00 0.00 0.00 52 1017.9
20260831144027 88 179 4.0 5.0 0.00 0.00 0.00 54 1017.9
20260831143521 87 202 4.0 5.0 0.00 0.00 0.00 54 1018.0
20260831143017 87 150 5.0 5.0 0.00 0.00 0.00 55 1018.1
20260831142514 86 230 3.0 4.0 0.00 0.00 0.00 56 1017.9
20260831142009 86 184 1.0 1.0 0.00 0.00 0.00 56 1017.9
20260831141507 86 181 2.0 3.0 0.00 0.00 0.00 56 1018.2
20260831141002 85 171 2.0 3.0 0.00 0.00 0.00 57 1018.0
20260831140502 85 207 3.0 4.0 0.00 0.00 0.00 57 1018.1
20260831140001 86 152 2.0 3.0 0.00 0.00 0.00 56 1018.1
20260831135500 84 218 0.0 0.0 0.00 0.00 0.00 58 1017.9
20260831134955 84 228 0.0 0.0 0.00 0.00 0.00 57 1018.0
20260831134452 82 221 0.0 0.0 0.00 0.00 0.00 60 1017.9
20260831133951 82 221 1.0 1.0 0.00 0.00 0.00 61 1018.0
20260831133446 81 293 0.0 1.0 0.00 0.00 0.00 61 1017.9
20260831132941 80 256 0.0 1.0 0.00 0.00 0.00 62 1017.7
20260831132437 79 226 0.0 0.0 0.00 0.00 0.00 63 1017.7
20260831131936 79 246 0.0 0.0 0.00 0.00 0.00 65 1017.8
20260831131431 78 264 0.0 0.0 0.00 0.00 0.00 68 1017.5
20260831130927 77 259 0.0 1.0 0.00 0.00 0.00 69 1017.6
20260831130422 76 233 0.0 0.0 0.00 0.00 0.00 71 1017.5
20260831125921 74 271 0.0 0.0 0.00 0.00 0.00 74 1017.4
20260831125416 72 277 0.0 0.0 0.00 0.00 0.00 77 1017.4
20260831124912 72 251 0.0 0.0 0.00 0.00 0.00 79 1017.6
20260831124408 72 299 0.0 0.0 0.00 0.00 0.00 79 1017.3
20260831123908 71 301 0.0 0.0 0.00 0.00 0.00 79 1017.3
20260831123407 70 297 1.0 1.0 0.00 0.00 0.00 81 1017.2
20260831122902 69 285 0.0 0.0 0.00 0.00 0.00 83 1017.2
20260831122357 69 281 0.0 0.0 0.00 0.00 0.00 84 1016.9
20260831121852 69 267 0.0 0.0 0.00 0.00 0.00 83 1016.9
20260831121348 69 282 0.0 0.0 0.00 0.00 0.00 83 1016.9
20260831120843 69 282 0.0 0.0 0.00 0.00 0.00 84 1016.8
20260831120338 69 293 0.0 0.0 0.00 0.00 0.00 83 1016.6
20260831115833 69 282 0.0 0.0 0.00 0.00 0.00 82 1016.8
20260831115330 69 283 0.0 0.0 0.00 0.00 0.00 82 1016.7
20260831114828 69 274 0.0 0.0 0.00 0.00 0.00 83 1016.4
20260831114327 69 264 0.0 0.0 0.00 0.00 0.00 82 1016.5
20260831113823 69 295 0.0 1.0 0.00 0.00 0.00 81 1016.5
20260831113323 69 266 0.0 0.0 0.00 0.00 0.00 81 1016.3
20260831112818 69 266 0.0 0.0 0.00 0.00 0.00 79 1016.3
20260831112313 69 272 0.0 0.0 0.00 0.00 0.00 79 1016.3
20260831111808 70 266 0.0 0.0 0.00 0.00 0.00 78 1016.4
20260831111304 71 269 0.0 0.0 0.00 0.00 0.00 77 1016.3
20260831110800 71 268 0.0 0.0 0.00 0.00 0.00 76 1016.1
20260831110255 71 261 0.0 0.0 0.00 0.00 0.00 75 1016.2
20260831105753 72 259 0.0 0.0 0.00 0.00 0.00 74 1016.1
20260831105249 73 260 0.0 0.0 0.00 0.00 0.00 74 1016.1
20260831104749 73 263 0.0 0.0 0.00 0.00 0.00 72 1016.2
20260831104246 73 241 0.0 0.0 0.00 0.00 0.00 71 1016.2
20260831103746 74 247 0.0 1.0 0.00 0.00 0.00 70 1016.1
20260831103242 74 225 0.0 1.0 0.00 0.00 0.00 69 1016.3
20260831102741 74 249 0.0 0.0 0.00 0.00 0.00 68 1015.9
20260831102236 75 249 0.0 0.0 0.00 0.00 0.00 67 1015.9
20260831101732 75 262 0.0 0.0 0.00 0.00 0.00 66 1015.9
20260831101227 75 220 0.0 0.0 0.00 0.00 0.00 67 1016.1
20260831100723 75 141 1.0 1.0 0.00 0.00 0.00 65 1015.9
20260831100219 75 192 0.0 1.0 0.00 0.00 0.00 65 1016.1
20260831095718 76 240 0.0 1.0 0.00 0.00 0.00 65 1015.8
20260831095213 76 179 1.0 1.0 0.00 0.00 0.00 64 1015.8
20260831094708 76 195 2.0 3.0 0.00 0.00 0.00 64 1015.9
20260831094204 76 102 2.0 3.0 0.00 0.00 0.00 62 1015.9
20260831093659 76 216 1.0 1.0 0.00 0.00 0.00 63 1015.9
20260831093155 76 261 0.0 0.0 0.00 0.00 0.00 64 1015.9
20260831092651 76 225 1.0 1.0 0.00 0.00 0.00 64 1015.9
20260831092147 76 185 2.0 3.0 0.00 0.00 0.00 62 1015.7
20260831091645 77 228 1.0 3.0 0.00 0.00 0.00 61 1015.7
20260831091142 77 222 0.0 1.0 0.00 0.00 0.00 61 1015.8
20260831090637 77 251 0.0 0.0 0.00 0.00 0.00 61 1015.7
20260831090133 77 215 1.0 1.0 0.00 0.00 0.00 61 1015.6
20260831085628 77 223 1.0 1.0 0.00 0.00 0.00 60 1015.5
20260831085123 77 133 2.0 3.0 0.00 0.00 0.00 60 1015.4
20260831084619 77 97 3.0 3.0 0.00 0.00 0.00 60 1015.5
20260831084115 77 197 0.0 1.0 0.00 0.00 0.00 60 1015.6
20260831083611 77 208 1.0 1.0 0.00 0.00 0.00 60 1015.6
20260831083106 77 99 1.0 1.0 0.00 0.00 0.00 59 1015.6
20260831082604 77 103 2.0 3.0 0.00 0.00 0.00 59 1015.5
20260831082059 77 125 2.0 3.0 0.00 0.00 0.00 59 1015.5
20260831081555 77 202 2.0 3.0 0.00 0.00 0.00 58 1015.4
20260831081051 77 182 2.0 3.0 0.00 0.00 0.00 58 1015.4
20260831080546 77 232 2.0 3.0 0.00 0.00 0.00 60 1015.2
20260831080041 77 243 0.0 1.0 0.00 0.00 0.00 62 1015.3
20260831075536 77 125 2.0 3.0 0.00 0.00 0.00 60 1015.4
20260831075032 77 96 2.0 3.0 0.00 0.00 0.00 60 1015.3
20260831074531 77 179 0.0 1.0 0.00 0.00 0.00 61 1015.3
20260831074031 77 216 0.0 1.0 0.00 0.00 0.00 60 1015.3
20260831073526 77 83 1.0 1.0 0.00 0.00 0.00 61 1015.4
20260831073025 77 240 0.0 0.0 0.00 0.00 0.00 60 1015.4
20260831072521 76 208 0.0 1.0 0.00 0.00 0.00 61 1015.3
20260831072017 75 236 0.0 0.0 0.00 0.00 0.00 64 1015.4
20260831071516 76 236 0.0 1.0 0.00 0.00 0.00 65 1015.3
20260831071012 76 211 0.0 1.0 0.00 0.00 0.00 64 1015.4
20260831070510 76 221 0.0 1.0 0.00 0.00 0.00 62 1015.3
20260831070005 76 258 0.0 0.0 0.00 0.00 0.00 62 1015.4
20260831065503 76 213 1.0 1.0 0.00 0.00 0.00 65 1015.5
20260831064957 76 163 1.0 1.0 0.00 0.00 0.00 63 1015.4
20260831064452 76 247 0.0 0.0 0.00 0.00 0.00 65 1015.6
20260831063948 76 243 0.0 0.0 0.00 0.00 0.00 64 1015.6
20260831063443 76 220 1.0 1.0 0.00 0.00 0.00 64 1015.4
20260831062937 76 158 1.0 1.0 0.00 0.00 0.00 64 1015.4
20260831062433 76 143 1.0 1.0 0.00 0.00 0.00 65 1015.3
20260831061932 77 223 1.0 1.0 0.00 0.00 0.00 65 1015.4
20260831061430 77 192 1.0 1.0 0.00 0.00 0.00 65 1015.6
20260831060927 77 97 1.0 1.0 0.00 0.00 0.00 66 1015.6
20260831060421 77 234 0.0 1.0 0.00 0.00 0.00 62 1015.5
20260831055920 77 167 2.0 3.0 0.00 0.00 0.00 63 1015.6
20260831055415 77 88 2.0 3.0 0.00 0.00 0.00 64 1015.5
20260831054911 77 236 1.0 1.0 0.00 0.00 0.00 63 1015.5
20260831054407 77 177 1.0 1.0 0.00 0.00 0.00 62 1015.5
20260831053906 78 183 1.0 3.0 0.00 0.00 0.00 63 1015.6
20260831053404 77 167 2.0 3.0 0.00 0.00 0.00 62 1015.5
20260831052859 77 80 1.0 1.0 0.00 0.00 0.00 65 1015.3
20260831052358 77 208 1.0 1.0 0.00 0.00 0.00 66 1015.5
20260831051856 77 108 1.0 1.0 0.00 0.00 0.00 65 1015.3
20260831051354 76 203 1.0 1.0 0.00 0.00 0.00 65 1015.5
20260831050850 76 116 1.0 1.0 0.00 0.00 0.00 67 1015.4
20260831050344 77 113 1.0 3.0 0.00 0.00 0.00 65 1015.4
20260831045844 78 228 0.0 1.0 0.00 0.00 0.00 62 1015.3
20260831045343 78 228 0.0 1.0 0.00 0.00 0.00 64 1015.4
20260831044838 79 229 0.0 1.0 0.00 0.00 0.00 61 1015.3
20260831044338 79 248 0.0 0.0 0.00 0.00 0.00 60 1015.3
20260831043835 79 203 1.0 1.0 0.00 0.00 0.00 59 1015.4
20260831043334 79 219 0.0 0.0 0.00 0.00 0.00 59 1015.2
20260831042829 79 232 0.0 0.0 0.00 0.00 0.00 61 1015.0
20260831042328 79 178 1.0 1.0 0.00 0.00 0.00 59 1015.2
20260831041824 79 181 1.0 1.0 0.00 0.00 0.00 60 1014.9
20260831041323 78 220 1.0 1.0 0.00 0.00 0.00 63 1015.1
20260831040818 79 125 1.0 1.0 0.00 0.00 0.00 60 1015.0
20260831040318 79 165 0.0 1.0 0.00 0.00 0.00 59 1015.0
20260831035816 78 156 1.0 1.0 0.00 0.00 0.00 59 1014.8
20260831035316 78 74 0.0 1.0 0.00 0.00 0.00 62 1014.9
20260831034815 79 288 0.0 0.0 0.00 0.00 0.00 59 1014.8
20260831034311 78 242 0.0 0.0 0.00 0.00 0.00 60 1014.8
20260831033807 77 154 2.0 4.0 0.00 0.00 0.00 61 1014.8
20260831033306 77 237 0.0 0.0 0.00 0.00 0.00 63 1014.6
20260831032802 76 254 0.0 0.0 0.00 0.00 0.00 64 1014.6
20260831032256 74 257 0.0 0.0 0.00 0.00 0.00 71 1014.6
20260831031752 74 244 0.0 0.0 0.00 0.00 0.00 73 1014.7
20260831031251 74 249 0.0 0.0 0.00 0.00 0.00 74 1014.7
20260831030746 74 260 0.0 0.0 0.00 0.00 0.00 74 1014.7
20260831030244 74 224 0.0 0.0 0.00 0.00 0.00 73 1014.5
20260831025743 74 262 0.0 0.0 0.00 0.00 0.00 72 1014.5
20260831025238 75 243 0.0 0.0 0.00 0.00 0.00 71 1014.7
20260831024734 75 255 0.0 0.0 0.00 0.00 0.00 71 1014.3
20260831024233 75 265 0.0 0.0 0.00 0.00 0.00 70 1014.6
20260831023732 75 278 0.0 0.0 0.00 0.00 0.00 69 1014.5
20260831023231 75 265 0.0 0.0 0.00 0.00 0.00 68 1014.3
20260831022726 76 273 0.0 0.0 0.00 0.00 0.00 69 1014.2
20260831022220 76 265 0.0 0.0 0.00 0.00 0.00 68 1014.1
20260831021720 77 254 0.0 0.0 0.00 0.00 0.00 67 1014.2
20260831021214 77 263 0.0 0.0 0.00 0.00 0.00 66 1014.1
20260831020711 77 221 0.0 0.0 0.00 0.00 0.00 66 1014.1
20260831020210 78 275 0.0 0.0 0.00 0.00 0.00 65 1014.0
20260831015706 78 272 0.0 0.0 0.00 0.00 0.00 63 1014.0
20260831015206 79 228 0.0 0.0 0.00 0.00 0.00 63 1013.7
20260831014701 79 299 0.0 0.0 0.00 0.00 0.00 62 1013.8
20260831014156 80 259 0.0 0.0 0.00 0.00 0.00 61 1013.7
20260831013652 80 283 0.0 0.0 0.00 0.00 0.00 60 1013.6
20260831013152 81 269 0.0 0.0 0.00 0.00 0.00 59 1013.5
20260831012647 82 301 0.0 0.0 0.00 0.00 0.00 56 1013.6
20260831012142 83 264 0.0 0.0 0.00 0.00 0.00 55 1013.6
20260831011641 84 283 0.0 0.0 0.00 0.00 0.00 53 1013.6
20260831011137 86 242 0.0 0.0 0.00 0.00 0.00 52 1013.4
20260831010633 87 238 0.0 0.0 0.00 0.00 0.00 48 1013.5
20260831010128 87 193 0.0 0.0 0.00 0.00 0.00 46 1013.3
20260831005628 87 222 0.0 1.0 0.00 0.00 0.00 45 1013.3
20260831005124 87 202 1.0 1.0 0.00 0.00 0.00 45 1013.3
20260831004619 87 239 1.0 1.0 0.00 0.00 0.00 49 1013.4
20260831004115 88 170 0.0 1.0 0.00 0.00 0.00 46 1013.5
20260831003611 87 197 0.0 1.0 0.00 0.00 0.00 49 1013.7
20260831003107 89 219 0.0 0.0 0.00 0.00 0.00 47 1013.5
20260831002605 91 228 0.0 0.0 0.00 0.00 0.00 43 1013.5
20260831002100 92 213 0.0 1.0 0.00 0.00 0.00 40 1013.4
20260831001555 93 228 0.0 1.0 0.00 0.00 0.00 38 1013.7
20260831001052 93 126 3.0 4.0 0.00 0.00 0.00 37 1013.5
20260831000548 93 213 4.0 5.0 0.00 0.00 0.00 37 1013.4
20260831000047 94 200 1.0 3.0 0.00 0.00 0.00 38 1013.5
20260830235546 95 246 0.0 1.0 0.00 0.00 0.00 37 1013.6
20260830235042 96 212 2.0 3.0 0.00 0.00 0.00 35 1013.5
20260830234542 96 206 5.0 7.0 0.00 0.00 0.00 35 1013.7
20260830234038 96 213 2.0 3.0 0.00 0.00 0.00 35 1013.7
20260830233533 96 169 3.0 4.0 0.00 0.00 0.00 34 1013.5
20260830233029 96 213 3.0 4.0 0.00 0.00 0.00 35 1013.6
20260830232525 96 316 4.0 7.0 0.00 0.00 0.00 33 1013.6
20260830232021 97 182 5.0 7.0 0.00 0.00 0.00 32 1013.7
20260830231516 97 199 6.0 8.0 0.00 0.00 0.00 32 1013.7
20260830231015 97 186 8.0 10.0 0.00 0.00 0.00 31 1013.7
20260830230511 97 216 4.0 4.0 0.00 0.00 0.00 33 1013.5